TimeEDT,TemperatureF,Dew PointF,Humidity,Sea Level PressureIn,VisibilityMPH,Wind Direction,Wind SpeedMPH,Gust SpeedMPH,PrecipitationIn,Events,Conditions,WindDirDegrees,DateUTC
12:13 AM,48.2,46.4,93,29.98,10.0,WNW,6.9,-,N/A,,Clear,290,2011-10-12 04:13:00
12:33 AM,46.4,44.6,93,29.98,10.0,Calm,Calm,-,N/A,,Clear,0,2011-10-12 04:33:00
12:53 AM,46.4,44.6,93,29.97,10.0,Calm,Calm,-,N/A,,Clear,0,2011-10-12 04:53:00
1:13 AM,46.4,46.4,100,29.97,10.0,WNW,5.8,-,N/A,,Clear,290,2011-10-12 05:13:00
1:33 AM,46.4,46.4,100,29.97,10.0,NW,3.5,-,N/A,,Clear,310,2011-10-12 05:33:00
1:53 AM,46.4,44.6,93,29.96,10.0,WNW,5.8,-,N/A,,Clear,290,2011-10-12 05:53:00
2:13 AM,46.4,46.4,100,29.97,10.0,WNW,3.5,-,N/A,,Clear,300,2011-10-12 06:13:00
2:33 AM,46.4,44.6,93,29.97,10.0,Calm,Calm,-,N/A,,Clear,0,2011-10-12 06:33:00
2:53 AM,46.4,44.6,93,29.96,10.0,Calm,Calm,-,N/A,,Clear,0,2011-10-12 06:53:00
3:33 AM,46.4,44.6,93,29.96,10.0,Calm,Calm,-,N/A,,Clear,0,2011-10-12 07:33:00
4:13 AM,44.6,44.6,100,29.94,7.0,Calm,Calm,-,N/A,,Clear,0,2011-10-12 08:13:00
4:33 AM,44.6,44.6,100,29.94,10.0,Calm,Calm,-,N/A,,Clear,0,2011-10-12 08:33:00
4:53 AM,44.6,44.6,100,29.94,7.0,Calm,Calm,-,N/A,,Clear,0,2011-10-12 08:53:00
5:13 AM,44.6,44.6,100,29.94,10.0,Calm,Calm,-,N/A,,Clear,0,2011-10-12 09:13:00
5:33 AM,44.6,42.8,93,29.94,10.0,Calm,Calm,-,N/A,,Clear,0,2011-10-12 09:33:00
5:54 AM,44.6,42.8,93,29.94,10.0,Calm,Calm,-,N/A,,Clear,0,2011-10-12 09:54:00
6:13 AM,42.8,42.8,100,29.94,10.0,Calm,Calm,-,N/A,,Clear,0,2011-10-12 10:13:00
6:33 AM,42.8,42.8,100,29.94,7.0,Calm,Calm,-,N/A,,Clear,0,2011-10-12 10:33:00
6:53 AM,44.6,42.8,93,29.94,10.0,Calm,Calm,-,N/A,,Clear,0,2011-10-12 10:53:00
7:13 AM,42.8,42.8,100,29.94,10.0,Calm,Calm,-,N/A,,Clear,0,2011-10-12 11:13:00
7:34 AM,42.8,41.0,93,29.94,4.0,Calm,Calm,-,N/A,,Clear,0,2011-10-12 11:34:00
7:53 AM,42.8,42.8,100,29.93,7.0,Calm,Calm,-,N/A,,Clear,0,2011-10-12 11:53:00
8:34 AM,42.8,42.8,100,29.93,7.0,Calm,Calm,-,N/A,,Clear,0,2011-10-12 12:34:00
8:53 AM,44.6,42.8,93,29.94,7.0,Calm,Calm,-,N/A,,Clear,0,2011-10-12 12:53:00
9:13 AM,44.6,44.6,100,29.93,7.0,Calm,Calm,-,N/A,,Clear,0,2011-10-12 13:13:00
9:34 AM,46.4,44.6,93,29.93,7.0,Calm,Calm,-,N/A,,Clear,0,2011-10-12 13:34:00
9:53 AM,48.2,46.4,93,29.92,7.0,Calm,Calm,-,N/A,,Clear,0,2011-10-12 13:53:00
10:13 AM,51.8,50.0,94,29.92,10.0,NW,5.8,-,N/A,,Clear,320,2011-10-12 14:13:00
10:34 AM,53.6,50.0,88,29.91,5.0,North,4.6,-,N/A,,Clear,350,2011-10-12 14:34:00
11:13 AM,57.2,50.0,77,29.91,7.0,Calm,Calm,-,N/A,,Clear,0,2011-10-12 15:13:00
11:34 AM,59.0,50.0,72,29.90,10.0,Calm,Calm,-,N/A,,Clear,0,2011-10-12 15:34:00
11:53 AM,62.6,51.8,68,29.90,10.0,ESE,4.6,-,N/A,,Clear,110,2011-10-12 15:53:00
12:13 PM,64.4,51.8,64,29.89,10.0,SE,4.6,-,N/A,,Clear,140,2011-10-12 16:13:00
12:33 PM,64.4,50.0,59,29.89,10.0,Calm,Calm,-,N/A,,Clear,0,2011-10-12 16:33:00
12:53 PM,68.0,50.0,52,29.88,10.0,East,4.6,-,N/A,,Clear,100,2011-10-12 16:53:00
1:13 PM,68.0,50.0,52,29.87,10.0,ESE,3.5,-,N/A,,Clear,110,2011-10-12 17:13:00
1:34 PM,69.8,48.2,46,29.86,10.0,SE,6.9,-,N/A,,Clear,130,2011-10-12 17:34:00
1:53 PM,71.6,48.2,43,29.85,10.0,ESE,5.8,-,N/A,,Clear,110,2011-10-12 17:53:00
2:13 PM,71.6,46.4,41,29.84,10.0,East,9.2,-,N/A,,Clear,100,2011-10-12 18:13:00
2:33 PM,71.6,48.2,43,29.83,10.0,ESE,9.2,-,N/A,,Clear,120,2011-10-12 18:33:00
2:53 PM,71.6,50.0,46,29.83,10.0,SSE,10.4,17.3,N/A,,Scattered Clouds,150,2011-10-12 18:53:00
3:13 PM,71.6,48.2,43,29.82,10.0,SSE,9.2,-,N/A,,Scattered Clouds,150,2011-10-12 19:13:00
3:33 PM,71.6,50.0,46,29.81,10.0,East,9.2,-,N/A,,Clear,90,2011-10-12 19:33:00
3:53 PM,71.6,50.0,46,29.81,10.0,East,10.4,17.3,N/A,,Scattered Clouds,100,2011-10-12 19:53:00
4:13 PM,71.6,50.0,46,29.80,10.0,ESE,8.1,16.1,N/A,,Scattered Clouds,110,2011-10-12 20:13:00
4:33 PM,69.8,51.8,53,29.81,10.0,SE,12.7,18.4,N/A,,Mostly Cloudy,130,2011-10-12 20:33:00
5:33 PM,69.8,48.2,46,29.79,10.0,SE,9.2,-,N/A,,Scattered Clouds,140,2011-10-12 21:33:00
5:53 PM,69.8,48.2,46,29.79,10.0,SSE,11.5,-,N/A,,Clear,150,2011-10-12 21:53:00
6:13 PM,68.0,50.0,52,29.79,10.0,SE,9.2,-,N/A,,Clear,140,2011-10-12 22:13:00
6:33 PM,68.0,50.0,52,29.79,10.0,SE,5.8,-,N/A,,Clear,140,2011-10-12 22:33:00
6:53 PM,68.0,46.4,46,29.78,10.0,SE,6.9,-,N/A,,Clear,140,2011-10-12 22:53:00
7:13 PM,64.4,46.4,52,29.78,10.0,SE,5.8,-,N/A,,Clear,130,2011-10-12 23:13:00
7:33 PM,62.6,46.4,55,29.78,10.0,ESE,3.5,-,N/A,,Clear,120,2011-10-12 23:33:00
7:54 PM,62.6,46.4,55,29.78,10.0,ESE,4.6,-,N/A,,Clear,110,2011-10-12 23:54:00
8:13 PM,60.8,46.4,59,29.79,10.0,East,3.5,-,N/A,,Clear,100,2011-10-13 00:13:00
8:33 PM,60.8,46.4,59,29.78,10.0,Calm,Calm,-,N/A,,Clear,0,2011-10-13 00:33:00
8:54 PM,59.0,46.4,63,29.78,10.0,East,3.5,-,N/A,,Clear,100,2011-10-13 00:54:00
9:13 PM,57.2,46.4,67,29.78,10.0,East,3.5,-,N/A,,Clear,90,2011-10-13 01:13:00
9:33 PM,57.2,46.4,67,29.78,10.0,East,4.6,-,N/A,,Clear,90,2011-10-13 01:33:00
9:53 PM,57.2,46.4,67,29.78,10.0,East,5.8,-,N/A,,Clear,90,2011-10-13 01:53:00
10:13 PM,55.4,46.4,72,29.78,10.0,ESE,3.5,-,N/A,,Clear,110,2011-10-13 02:13:00
10:33 PM,55.4,48.2,77,29.77,10.0,East,3.5,-,N/A,,Clear,100,2011-10-13 02:33:00
10:53 PM,55.4,48.2,77,29.77,10.0,East,3.5,-,N/A,,Clear,90,2011-10-13 02:53:00
11:13 PM,53.6,48.2,82,29.76,10.0,Calm,Calm,-,N/A,,Clear,0,2011-10-13 03:13:00
11:33 PM,51.8,48.2,88,29.76,10.0,Calm,Calm,-,N/A,,Clear,0,2011-10-13 03:33:00
11:53 PM,53.6,50.0,88,29.75,10.0,East,3.5,-,N/A,,Clear,100,2011-10-13 03:53:00